Regional Weather Roundup
Issued by NWS

Home | Current Version | Previous Version | Text Only | Print | Product List | Glossary Off
Versions: 1 2 3 4 5 6 7 8 9 10 11 12 13 14 15 16 17 18 19 20 21 22 23 24 25 26 27 28 29 30 31 32 33 34 35 36 37 38 39 40 41 42 43 44 45 46 47 48 49 50

000
ASUS45 KCYS 301410
RWRWY

WYOMING REGIONAL WEATHER ROUNDUP
NATIONAL WEATHER SERVICE CHEYENNE WY
800 AM MDT MON MAR 30 2015

NOTE:  "FAIR" INDICATES FEW OR NO CLOUDS BELOW 12,000 FEET
WITH NO SIGNIFICANT WEATHER AND/OR OBSTRUCTIONS TO VISIBILITY.

WYZ001-301500-
YELLOWSTONE NATIONAL PARK

CITY           SKY/WX    TMP DP  RH WIND       PRES   REMARKS
LK YELLOWSTONE   N/A     21  17  84 NW3       30.27S
W YELLOWSTONE  NOT AVBL

$$
WYZ002>013-054>058-071-098>099-301500-
NORTHERN WYOMING

CITY           SKY/WX    TMP DP  RH WIND       PRES   REMARKS
JACKSON        CLEAR     27  21  80 CALM      30.27R
CODY           FAIR      45  21  39 CALM      30.15R
GREYBULL       FAIR      37  24  59 CALM      30.14R
WORLAND        FAIR      37  24  59 S6        30.15R WCI  32
SHERIDAN       FAIR      38  26  62 CALM      30.12R
BUFFALO        FAIR      44  24  45 W8        30.13R
GILLETTE       FAIR      45  25  45 NW13      30.10R
HULETT         FAIR      45  27  49 SW7       30.09R
NEWCASTLE      FAIR      37  23  56 N5        30.10R WCI  34

$$
WYZ014>020-022>026-101>103-301500-
CENTRAL WYOMING

CITY           SKY/WX    TMP DP  RH WIND       PRES   REMARKS
BIG PINEY      FAIR      25  16  68 NW3       30.29R
PINEDALE       FAIR      27  21  80 W3        30.29R
DUBOIS         FAIR      32  16  51 NW15      30.23S WCI  22
LANDER         FAIR      45  18  34 S3        30.17R
RIVERTON       FAIR      46  18  32 W14       30.17R
CASPER         FAIR      41  19  41 W10       30.16R
DOUGLAS        FAIR      40  20  44 NW9       30.15R WCI  34

$$
WYZ021-027>030-104>119-301500-
SOUTHERN WYOMING

CITY           SKY/WX    TMP DP  RH WIND       PRES   REMARKS
EVANSTON       FAIR      37  15  40 CALM      30.29R
FORT BRIDGER   FAIR      38  14  37 W7        30.31R WCI  32
ROCK SPRINGS   FAIR      35  14  42 CALM      30.27R
DIXON          FAIR      29  20  69 S3        30.30S
RAWLINS        FAIR      41  14  33 W12       30.23R
SARATOGA       FAIR      32  18  55 CALM      30.26R
LARAMIE        FAIR      42  15  33 W6        30.21S
CHEYENNE       FAIR      47  16  29 W13       30.17R
TORRINGTON     FAIR      36  22  56 W7        30.10R WCI  30
PINE BLUFFS    FAIR      43  19  39 W10       30.14R

$$


USA.gov is the U.S. government's official web portal to all federal, state and local government web resources and services.